Regional Weather Roundup
Issued by NWS Huntsville, AL

Home | Current Version | Previous Version | Text Only | Print | Product List | Glossary On
Versions: 1 2 3 4 5 6 7 8 9 10 11 12 13 14 15 16 17 18 19 20 21 22 23 24 25 26 27
000
ASUS44 KHUN 290410
RWRHUN

WEATHER ROUNDUP FOR THE TENNESSEE VALLEY
NATIONAL WEATHER SERVICE HUNTSVILLE AL
1100 PM CDT SAT MAY 28 2016

ALZ001>004-290500-
NORTHWEST ALABAMA

CITY           SKY/WX    TMP DP  RH WIND       PRES   REMARKS
COURTLAND HCN    N/A     68 N/A N/A CALM        N/A
RUSSELLVILLE     N/A     64 N/A N/A MISG        N/A
SHOALS AIRPORT CLEAR     70  63  78 W3        30.10R
$$

ALZ005>007-016-290500-
NORTH CENTRAL ALABAMA

CITY           SKY/WX    TMP DP  RH WIND       PRES   REMARKS
CULLMAN AG STN   N/A     66 N/A N/A CALM        N/A
DECATUR AP     CLEAR     66  64  93 CALM      30.10S
HUNTSVILLE AP  MOCLDY    70  64  81 E3        30.09S
HUN NWS/UAH      N/A     70  63  79 SE2         N/A
MERIDIANVILLE  PTCLDY    68  63  83 CALM      30.11S
VINEMONT AP    FAIR      67  64  92 CALM      30.13S
$$

ALZ008>010-290500-
NORTHEAST ALABAMA

CITY           SKY/WX    TMP DP  RH WIND       PRES   REMARKS
ALBERTVILLE    PTCLDY    66  66 100 E5        30.11S
FORT PAYNE     HAZE      63  59  88 CALM      30.12S VSB 1/4
SCOTTSBORO AP  PTCLDY    66  66 100 CALM      30.12S
SCOTTSBORO HCN   N/A     66 N/A N/A MISG        N/A
VALLEY HEAD      N/A     64 N/A N/A MISG        N/A
$$

TNZ076-096-097-290500-
SOUTHEASTERN MIDDLE TENNESSEE

CITY           SKY/WX    TMP DP  RH WIND       PRES   REMARKS
TULLAHOMA      CLEAR     66  66 100 CALM      30.13S
WINCHESTER     CLEAR     64  63  94 CALM      30.12S
$$

...SURROUNDING SITES...

CITY           SKY/WX    TMP DP  RH WIND       PRES   REMARKS
ATLANTA        CLOUDY    75  56  51 SE3       30.12S
ANNISTON       CLEAR     70  65  84 CALM      30.11S
BIRMINGHAM     CLEAR     72  63  73 E3        30.11S
CHATTANOOGA    PTCLDY    75  64  68 CALM      30.12R
DALTON         CLEAR     70  61  73 CALM      30.12S
GADSDEN        CLEAR     66  64  93 CALM      30.11S
GOLDEN TRNGL   CLEAR     73  64  73 CALM      30.07S
HALEYVILLE     FAIR      67  63  87 CALM      30.13R
JACKSON TN     MOCLDY    70  66  87 S3        30.06S
MEMPHIS        PTCLDY    75  68  78 S7        30.05S
NASHVILLE      MOCLDY    70  62  76 S5        30.09S
OXFORD MS      FAIR      68  64  88 S5        30.09S
ROME           CLEAR     68  58  70 NE3       30.11S
SAVANNAH       CLOUDY    70  66  88 CALM      30.07S
TUPELO         PTCLDY    71  68  90 CALM      30.08R
TUSCALOOSA     CLOUDY    72  67  84 NE3       30.07F
$$

...GULF COAST WEATHER...

CITY           SKY/WX    TMP DP  RH WIND       PRES   REMARKS
GULFPORT       CLEAR     72  69  90 CALM      30.07R
PASCAGOULA     CLEAR     67  65  93 CALM      30.08R
MOBILE         CLEAR     69  67  93 CALM      30.09R
GULF SHORES    PTCLDY    68  68 100 CALM      30.08R
DESTIN         CLEAR     76  68  76 CALM      30.06F
APPALACHICOLA  CLEAR     73  73 100 NW3       30.06S
$$





USA.gov is the U.S. government's official web portal to all federal, state and local government web resources and services.